Погода в Борозенском

Украина / Херсонская область     47°10′41″N   33°25′12″E
темп.,
°C
ветер,
м/с
пор.,
м/с
влажн.,
%
обл.,
%
осадки,
мм/ч
давл.,
гПа
погр.,
м
8 мая, сб
сб800:00+14ююв4971100 0.0 1012298
03:00+14ю61364100 0.0 1010413
06:00+14ю61470100 0.1 1009481
09:00+16ююз6127277 0.3 1009642
12:00+15з7982100 0.1 1010643
15:00+13зсз4885100 3.1 1011602
18:00+13ссз71067100 0.4 10131091
21:00+10ссз61268100 0.4 1015658
9 мая, вс
вс900:00+8ссз71276100 0.0 1017680
03:00+5ссз512852 0.0 1019483
06:00+4сз511862 0.0 1021421
09:00+9ссз79625 0.0 10231031
12:00+13ссз79415 0.0 10232147
15:00+14ссз793691 0.0 10242495
18:00+14ссз674713 0.0 10252175
21:00+9с48629 0.0 1027140
10 мая, пн
пн1000:00+7с34675 0.0 102849
03:00+6с33735 0.0 102837
06:00+6ссв35755 0.0 102983
09:00+12с464716 0.0 10291234
12:00+15с55363 0.0 10282053
15:00+16с56345 0.0 10262254
18:00+15ссв57406 0.0 10252204
21:00+10с456030 0.0 102562
11 мая, вт
вт1100:00+8ссз4106672 0.0 1024181
03:00+8ссз5117160 0.0 1022231
06:00+7ссз6137552 0.0 1021350
09:00+10ссз5969100 0.0 1020466
12:00+15с796267 0.0 10181021
15:00+13ссв71073100 0.0 1018926
18:00+11ссв697998 0.0 1018791
21:00+9св597457 0.1 1018272
12 мая, ср
ср1200:00+6ссв498610 0.0 1017167
03:00+8ссв4882100 0.0 1015425
06:00+7с3686100 0.0 1014376
09:00+9ссв2279100 0.1 1014489
12:00+11ююз3369100 0.6 1013853
15:00+14юз334966 0.8 10131735
18:00+13ююв3559100 0.1 1013286
21:00+10ю34697 0.1 101363